{"data":{"norad_id":55499,"epoch":"2026-05-25T00:37:01.331040Z","epoch_age_seconds":76048,"freshness":"FRESH","line1":"1 55499U 23015BC  26145.02570985  .00004366  00000+0  16803-3 0  9996","line2":"2 55499  42.9999 268.2935 0001525 278.9784  81.0895 15.27588481183023","mean_motion":15.27588481,"eccentricity":0.0001525,"inclination_deg":42.9999,"raan_deg":268.2935,"arg_perigee_deg":278.9784,"mean_anomaly_deg":81.0895,"bstar":0.00016803,"rev_number":18302,"period_min":94.26622535523,"perigee_km":481.97737398522,"apogee_km":484.07002799902,"semimajor_km":6861.1607009921,"source":"CELESTRAK","updated_at":"2026-05-25T13:38:17.832501Z"}}